GW3823 Weather Reports


Display with metric or nautical units.
time (UTC)temp
F
wind
direction
speed
MPH
gust
MPH
rain 1hr
in
rain 24hr
in
rain mn
in
humidity
%
barometer
mb
20260504130804 36 174 1.0 3.0 0.00 0.00 0.00 67 1007.5
20260504130305 36 205 1.0 2.0 0.00 0.00 0.00 67 1015.1
20260504120304 35 23 3.0 8.0 0.00 0.00 0.00 66 1007.3
20260504110304 35 47 2.0 5.0 0.00 0.00 0.00 67 1007.4
20260504100304 35 67 5.0 7.0 0.00 0.00 0.00 56 1013.7
20260504081806 35 66 5.0 13.0 0.00 0.00 0.00 61 1007.3
20260504081306 36 52 7.0 12.0 0.00 0.00 0.00 60 1007.3
20260504080806 36 49 4.0 9.0 0.00 0.00 0.00 59 1007.3
20260504080305 36 59 5.0 8.0 0.00 0.00 0.00 59 1007.3
20260504070306 38 65 7.0 12.0 0.00 0.00 0.00 57 1007.9
20260504045806 46 64 4.0 6.0 0.00 0.00 0.00 48 1009.8
20260504045305 45 47 1.0 5.0 0.00 0.00 0.00 48 1008.3
20260504044806 46 19 3.0 3.0 0.00 0.00 0.00 48 1007.9
20260504044306 46 35 3.0 7.0 0.00 0.00 0.00 49 1007.9
20260504043806 44 73 5.0 7.0 0.00 0.00 0.00 50 1008.7
20260504042806 45 70 2.0 6.0 0.00 0.00 0.00 48 1007.8
20260504042306 47 70 4.0 6.0 0.00 0.00 0.00 45 1008.9
20260504041806 46 64 5.0 7.0 0.00 0.00 0.00 45 1008.0
20260504040305 47 75 5.0 9.0 0.00 0.00 0.00 45 1008.6
20260504035805 45 63 6.0 9.0 0.00 0.00 0.00 45 1009.6
20260504035306 46 51 4.0 9.0 0.00 0.00 0.00 45 1008.3
20260504034805 48 57 6.0 7.0 0.00 0.00 0.00 45 1009.0
20260504034306 49 59 5.0 9.0 0.00 0.00 0.00 45 1009.9
20260504033806 47 52 8.0 12.0 0.00 0.00 0.00 31 1008.7
20260504033306 48 56 7.0 12.0 0.00 0.00 0.00 45 1009.2
20260504032805 46 59 4.0 12.0 0.00 0.00 0.00 44 1008.0
20260504032306 48 84 5.0 12.0 0.00 0.00 0.00 43 1008.7
20260504031806 49 55 7.0 13.0 0.00 0.00 0.00 44 1009.6
20260504031305 47 54 6.0 9.0 0.00 0.00 0.00 44 1008.2
20260504030306 47 74 3.0 9.0 0.00 0.00 0.00 33 1007.8
20260504025306 48 86 3.0 6.0 0.00 0.00 0.00 42 1009.4
20260504024805 50 65 4.0 6.0 0.00 0.00 0.00 41 1008.3
20260504023806 50 55 1.0 2.0 0.00 0.00 0.00 40 1007.8
20260504023306 52 21 1.0 2.0 0.00 0.00 0.00 40 1008.5
20260504022805 53 306 0.0 3.0 0.00 0.00 0.00 39 1009.1
20260504022305 51 57 2.0 6.0 0.00 0.00 0.00 27 1007.9
20260504021806 53 67 3.0 5.0 0.00 0.00 0.00 38 1009.1
20260504021306 51 61 5.0 6.0 0.00 0.00 0.00 28 1007.6
20260504020806 53 65 5.0 6.0 0.00 0.00 0.00 37 1008.6
20260504020305 52 68 3.0 6.0 0.00 0.00 0.00 35 1007.4
20260504015805 54 59 2.0 5.0 0.00 0.00 0.00 34 1008.3
20260504014805 55 348 1.0 5.0 0.00 0.00 0.00 16 1007.9
20260504014306 56 235 1.0 3.0 0.00 0.00 0.00 30 1008.7
20260504013805 55 267 0.0 3.0 0.00 0.00 0.00 22 1007.7
20260504013306 56 191 1.0 5.0 0.00 0.00 0.00 29 1008.6
20260504012305 56 67 2.0 13.0 0.00 0.00 0.00 18 1008.2
20260504011806 58 59 4.0 9.0 0.00 0.00 0.00 27 1009.0
20260504011305 56 340 1.0 12.0 0.00 0.00 0.00 15 1007.7
20260504010805 58 78 7.0 12.0 0.00 0.00 0.00 25 1008.8
20260504010306 56 157 4.0 9.0 0.00 0.00 0.00 24 1007.3
20260504005806 58 65 4.0 12.0 0.00 0.00 0.00 17 1008.2
20260504004806 58 248 2.0 12.0 0.00 0.00 0.00 24 1008.1
20260504004306 60 132 3.0 8.0 0.00 0.00 0.00 25 1008.7
20260504003806 58 71 4.0 6.0 0.00 0.00 0.00 24 1007.7
20260504003305 59 95 3.0 8.0 0.00 0.00 0.00 24 1008.4
20260504002805 58 79 3.0 5.0 0.00 0.00 0.00 24 1007.7
20260504002305 59 327 2.0 10.0 0.00 0.00 0.00 23 1008.5
20260504001806 57 254 3.0 14.0 0.00 0.00 0.00 25 1007.2
20260504001305 59 51 6.0 13.0 0.00 0.00 0.00 24 1008.1
20260504000305 59 310 7.0 13.0 0.00 0.00 0.00 21 1008.1
20260503235306 67 89 5.0 13.0 0.00 0.00 0.00 23 1010.0
20260503234806 67 308 2.0 10.0 0.00 0.00 0.00 14 1007.2
20260503233805 67 195 4.0 14.0 0.00 0.00 0.00 24 1007.2
20260503233305 67 317 4.0 13.0 0.00 0.00 0.00 15 1007.1
20260503232306 67 202 2.0 12.0 0.00 0.00 0.00 15 1009.1
20260503231805 67 196 7.0 12.0 0.00 0.00 0.00 26 1008.0
20260503231305 67 159 5.0 12.0 0.00 0.00 0.00 25 1008.9
20260503230805 67 160 8.0 8.0 0.00 0.00 0.00 28 1008.1
20260503230305 67 160 8.0 8.0 0.00 0.00 0.00 16 1009.0
20260503225805 57 160 8.0 8.0 0.00 0.00 0.00 28 1011.7
20260503225305 59 160 8.0 9.0 0.00 0.00 0.00 19 1007.6
20260503224805 58 171 8.0 9.0 0.00 0.00 0.00 26 1011.9
20260503224305 59 171 8.0 12.0 0.00 0.00 0.00 26 1007.7
20260503223805 58 163 9.0 12.0 0.00 0.00 0.00 24 1007.5
20260503223306 59 156 10.0 16.0 0.00 0.00 0.00 24 1015.1
20260503222805 60 146 7.0 22.0 0.00 0.00 0.00 24 1007.5
20260503222305 60 167 5.0 15.0 0.00 0.00 0.00 25 1007.6
20260503221304 60 178 10.0 16.0 0.00 0.00 0.00 25 1007.8
20260503220805 60 175 6.0 16.0 0.00 0.00 0.00 14 1007.8
20260503220305 59 180 8.0 16.0 0.00 0.00 0.00 24 1007.9
20260503215804 61 181 6.0 20.0 0.00 0.00 0.00 13 1007.9
20260503215306 61 190 6.0 18.0 0.00 0.00 0.00 22 1007.9
20260503214805 62 154 9.0 20.0 0.00 0.00 0.00 22 1007.8
20260503214305 62 178 5.0 18.0 0.00 0.00 0.00 13 1008.1
20260503213805 62 271 7.0 23.0 0.00 0.00 0.00 20 1008.3
20260503212805 61 242 5.0 12.0 0.00 0.00 0.00 19 1008.1
20260503212306 61 24 2.0 13.0 0.00 0.00 0.00 19 1015.2
20260503211805 59 257 6.0 29.0 0.00 0.00 0.00 20 1008.4
20260503211305 59 161 7.0 24.0 0.00 0.00 0.00 20 1008.4
20260503210305 59 169 8.0 21.0 0.00 0.00 0.00 20 1013.3
20260503205806 60 167 7.0 30.0 0.00 0.00 0.00 18 1008.6
20260503205305 59 163 10.0 30.0 0.00 0.00 0.00 20 1008.7
20260503204806 61 148 12.0 25.0 0.00 0.00 0.00 18 1008.7
20260503204304 59 207 8.0 20.0 0.00 0.00 0.00 20 1008.7
20260503203805 62 257 9.0 20.0 0.00 0.00 0.00 18 1016.5
20260503203305 59 195 7.0 21.0 0.00 0.00 0.00 20 1008.5
20260503202305 59 193 3.0 21.0 0.00 0.00 0.00 20 1008.9
20260503201805 60 217 7.0 23.0 0.00 0.00 0.00 19 1008.8
20260503201305 62 157 10.0 21.0 0.00 0.00 0.00 18 1015.7
20260503200304 61 163 7.0 29.0 0.00 0.00 0.00 16 1009.0
20260503195805 67 172 8.0 22.0 0.00 0.00 0.00 20 1008.9
20260503195305 67 172 11.0 25.0 0.00 0.00 0.00 20 1008.9
20260503194305 67 184 10.0 22.0 0.00 0.00 0.00 21 1009.1
20260503193804 58 179 11.0 29.0 0.00 0.00 0.00 22 1013.0
20260503193305 67 136 6.0 24.0 0.00 0.00 0.00 23 1009.0
20260503192805 67 150 15.0 24.0 0.00 0.00 0.00 20 1017.4
20260503192305 67 353 8.0 15.0 0.00 0.00 0.00 22 1009.4
20260503191805 67 188 4.0 26.0 0.00 0.00 0.00 20 1017.1
20260503190805 67 166 6.0 29.0 0.00 0.00 0.00 21 1009.4
20260503190305 67 151 5.0 24.0 0.00 0.00 0.00 22 1017.1
20260503185805 66 176 6.0 16.0 0.00 0.00 0.00 22 1009.5
20260503185305 65 253 8.0 21.0 0.00 0.00 0.00 24 1009.4
20260503184805 65 164 10.0 24.0 0.00 0.00 0.00 22 1009.6
20260503183805 66 162 5.0 28.0 0.00 0.00 0.00 22 1009.6
20260503183305 65 183 8.0 21.0 0.00 0.00 0.00 21 1010.1
20260503182805 65 209 8.0 21.0 0.00 0.00 0.00 20 1009.7
20260503181305 65 166 14.0 35.0 0.00 0.00 0.00 21 1009.9
20260503180804 65 161 12.0 35.0 0.00 0.00 0.00 23 1009.8
20260503180305 65 176 9.0 24.0 0.00 0.00 0.00 25 1010.0
20260503175805 61 163 13.0 24.0 0.00 0.00 0.00 24 1009.9
20260503175305 61 207 3.0 24.0 0.00 0.00 0.00 25 1010.3
20260503174804 61 146 9.0 20.0 0.00 0.00 0.00 25 1015.3
20260503172804 61 155 12.0 23.0 0.00 0.00 0.00 26 1016.4
20260503171804 61 193 7.0 20.0 0.00 0.00 0.00 26 1016.5
20260503171305 61 206 7.0 26.0 0.00 0.00 0.00 26 1010.8
20260503170804 60 168 9.0 26.0 0.00 0.00 0.00 27 1010.6
20260503170304 60 195 9.0 22.0 0.00 0.00 0.00 27 1010.7
20260503150305 43 203 3.0 7.0 0.00 0.00 0.00 47 1020.1
20260503140305 35 173 3.0 6.0 0.00 0.00 0.00 63 1012.2